• In Uzbekistan
  • List of Countries
  • For 7 days
  • Water Temperature
  • Satellite Maps
  • Weather Map
  • Weather Widgets
  • user-avatar
    Login

    Hourly Weather Seregovo

    Today, 18 October, Thursday

    Time Temperature Precipitation Wind Pressure Humidity
    00:00 +4°C° 0 mm 2 mps 754 mmHg 81%
    01:00 +4°C° 0 mm 2 mps 754 mmHg 83%
    02:00 +4°C° 0 mm 2 mps 754 mmHg 84%
    03:00 +4°C° 0 mm 1 mps 754 mmHg 86%
    04:00 +4°C° 0 mm 1 mps 753 mmHg 88%
    05:00 +4°C° 0 mm 1 mps 753 mmHg 90%
    06:00 +3°C° 0 mm 1 mps 752 mmHg 92%
    07:00 +3°C° 0 mm 2 mps 752 mmHg 90%
    08:00 +3°C° 0 mm 2 mps 751 mmHg 87%
    09:00 +3°C° 0 mm 3 mps 751 mmHg 85%
    10:00 +3°C° 0.1 mm 3 mps 750 mmHg 83%
    11:00 +3°C° 0.1 mm 3 mps 749 mmHg 82%
    12:00 +4°C° 0.1 mm 3 mps 748 mmHg 81%
    13:00 +4°C° 0.7 mm 4 mps 748 mmHg 83%
    14:00 +4°C° 0.7 mm 4 mps 747 mmHg 85%
    15:00 +4°C° 0.7 mm 4 mps 746 mmHg 88%
    16:00 +4°C° 0.3 mm 4 mps 746 mmHg 89%
    17:00 +4°C° 0.3 mm 3 mps 745 mmHg 91%
    18:00 +4°C° 0.3 mm 3 mps 744 mmHg 93%
    19:00 +5°C° 0.1 mm 3 mps 744 mmHg 94%
    20:00 +7°C° 0.1 mm 3 mps 744 mmHg 95%
    21:00 +7°C° 0.1 mm 3 mps 743 mmHg 95%
    22:00 +8°C° 0 mm 3 mps 743 mmHg 95%
    23:00 +8°C° 0 mm 3 mps 743 mmHg 95%

    Tomorrow, 19 October, Friday

    Time Temperature Precipitation Wind Pressure Humidity
    00:00 +8°C° 0 mm 3 mps 743 mmHg 95%
    01:00 +8°C° 0 mm 3 mps 743 mmHg 96%
    02:00 +8°C° 0 mm 3 mps 743 mmHg 96%
    03:00 +8°C° 0 mm 2 mps 743 mmHg 96%
    04:00 +8°C° 0.1 mm 2 mps 742 mmHg 96%
    05:00 +8°C° 0.1 mm 2 mps 742 mmHg 96%
    06:00 +8°C° 0.1 mm 2 mps 741 mmHg 96%
    07:00 +8°C° 0.7 mm 3 mps 741 mmHg 94%
    08:00 +7°C° 0.7 mm 4 mps 740 mmHg 93%
    09:00 +8°C° 0.7 mm 4 mps 739 mmHg 92%
    10:00 +8°C° 0.5 mm 4 mps 738 mmHg 90%
    11:00 +8°C° 0.5 mm 5 mps 738 mmHg 88%
    12:00 +8°C° 0.5 mm 5 mps 737 mmHg 87%
    13:00 +8°C° 0.2 mm 5 mps 738 mmHg 86%
    14:00 +8°C° 0.2 mm 5 mps 738 mmHg 85%
    15:00 +8°C° 0.2 mm 5 mps 738 mmHg 84%
    16:00 +7°C° 0.1 mm 5 mps 738 mmHg 83%
    17:00 +7°C° 0.1 mm 5 mps 739 mmHg 81%
    18:00 +7°C° 0.1 mm 5 mps 739 mmHg 80%
    19:00 +6°C° 0 mm 5 mps 740 mmHg 79%
    20:00 +5°C° 0 mm 5 mps 740 mmHg 79%
    21:00 +5°C° 0 mm 5 mps 741 mmHg 78%
    22:00 +4°C° 0 mm 4 mps 741 mmHg 79%
    23:00 +4°C° 0 mm 4 mps 741 mmHg 81%

    Day after tomorrow, 20 October, Saturday

    Time Temperature Precipitation Wind Pressure Humidity
    00:00 +3°C° 0 mm 4 mps 741 mmHg 82%
    01:00 +3°C° 0 mm 3 mps 741 mmHg 85%
    02:00 +2°C° 0 mm 3 mps 742 mmHg 87%
    03:00 +2°C° 0 mm 3 mps 742 mmHg 90%
    04:00 +2°C° 0 mm 3 mps 742 mmHg 91%
    05:00 +3°C° 0 mm 2 mps 742 mmHg 93%
    06:00 +2°C° 0 mm 2 mps 742 mmHg 94%
    07:00 +3°C° 0 mm 2 mps 742 mmHg 92%
    08:00 +3°C° 0 mm 2 mps 742 mmHg 90%
    09:00 +4°C° 0 mm 2 mps 743 mmHg 88%
    10:00 +3°C° 0 mm 3 mps 743 mmHg 85%
    11:00 +3°C° 0 mm 3 mps 743 mmHg 82%
    12:00 +4°C° 0 mm 3 mps 744 mmHg 78%
    13:00 +3°C° 0 mm 3 mps 744 mmHg 77%
    14:00 +3°C° 0 mm 3 mps 745 mmHg 77%
    15:00 +3°C° 0 mm 3 mps 745 mmHg 76%
    16:00 +2°C° 0 mm 3 mps 746 mmHg 77%
    17:00 +2°C° 0 mm 3 mps 746 mmHg 78%
    18:00 +1°C° 0 mm 3 mps 747 mmHg 80%
    19:00 +2°C° 0 mm 2 mps 747 mmHg 80%
    20:00 +2°C° 0 mm 2 mps 747 mmHg 80%
    21:00 +2°C° 0 mm 2 mps 748 mmHg 80%
    22:00 +2°C° 0 mm 2 mps 748 mmHg 80%
    23:00 +1°C° 0 mm 2 mps 748 mmHg 80%

    21 October, Sunday

    Time Temperature Precipitation Wind Pressure Humidity
    00:00 +1°C° 0 mm 2 mps 749 mmHg 80%
    01:00 +1°C° 0 mm 2 mps 749 mmHg 80%
    02:00 +1°C° 0 mm 2 mps 750 mmHg 79%
    03:00 +1°C° 0 mm 2 mps 750 mmHg 79%
    04:00 -1°C° 0 mm 2 mps 750 mmHg 78%
    05:00 -1°C° 0 mm 2 mps 751 mmHg 77%
    06:00 -1°C° 0 mm 2 mps 751 mmHg 76%
    07:00 -1°C° 0 mm 2 mps 751 mmHg 74%
    08:00 -1°C° 0 mm 2 mps 752 mmHg 72%
    09:00 +1°C° 0 mm 2 mps 752 mmHg 69%
    10:00 +1°C° 0 mm 2 mps 752 mmHg 68%
    11:00 +1°C° 0 mm 2 mps 753 mmHg 66%
    12:00 +2°C° 0 mm 2 mps 753 mmHg 65%
    13:00 +2°C° 0 mm 2 mps 753 mmHg 66%
    14:00 +2°C° 0 mm 2 mps 754 mmHg 67%
    15:00 +2°C° 0 mm 2 mps 754 mmHg 67%
    16:00 +2°C° 0 mm 1 mps 754 mmHg 69%
    17:00 +2°C° 0 mm 1 mps 754 mmHg 72%
    18:00 +2°C° 0 mm 1 mps 754 mmHg 74%
    19:00 +1°C° 0 mm 1 mps 754 mmHg 75%
    20:00 +1°C° 0 mm 1 mps 754 mmHg 76%
    21:00 0°C° 0 mm 0 mps 754 mmHg 78%
    22:00 0°C° 0 mm 1 mps 754 mmHg 80%
    23:00 0°C° 0 mm 1 mps 754 mmHg 82%

    22 October, Monday

    Time Temperature Precipitation Wind Pressure Humidity
    00:00 0°C° 0 mm 1 mps 754 mmHg 84%
    01:00 0°C° 0 mm 1 mps 754 mmHg 86%
    02:00 0°C° 0 mm 1 mps 754 mmHg 87%
    03:00 0°C° 0 mm 1 mps 754 mmHg 88%
    04:00 -2°C° 0 mm 2 mps 753 mmHg 89%
    05:00 -2°C° 0 mm 2 mps 753 mmHg 90%
    06:00 -2°C° 0 mm 2 mps 753 mmHg 91%
    07:00 -1°C° 0 mm 2 mps 752 mmHg 89%
    08:00 -1°C° 0 mm 3 mps 752 mmHg 87%
    09:00 0°C° 0 mm 3 mps 751 mmHg 84%
    10:00 0°C° 0.2 mm 4 mps 751 mmHg 83%
    11:00 0°C° 0.2 mm 4 mps 750 mmHg 83%
    12:00 +1°C° 0.2 mm 4 mps 750 mmHg 82%
    13:00 +1°C° 0.2 mm 4 mps 749 mmHg 83%
    14:00 +1°C° 0.2 mm 4 mps 748 mmHg 84%
    15:00 +2°C° 0.2 mm 5 mps 747 mmHg 85%
    16:00 +2°C° 0.2 mm 5 mps 747 mmHg 85%
    17:00 +2°C° 0.2 mm 5 mps 746 mmHg 86%
    18:00 +2°C° 0.2 mm 5 mps 745 mmHg 86%
    19:00 +2°C° 0.2 mm 5 mps 744 mmHg 85%
    20:00 +2°C° 0.2 mm 5 mps 744 mmHg 84%
    21:00 +2°C° 0.2 mm 6 mps 743 mmHg 84%
    22:00 +2°C° 0.5 mm 6 mps 742 mmHg 84%
    23:00 +2°C° 0.5 mm 6 mps 742 mmHg 83%

    23 October, Tuesday

    Time Temperature Precipitation Wind Pressure Humidity
    00:00 +2°C° 0.5 mm 6 mps 741 mmHg 83%
    01:00 +2°C° 0.4 mm 6 mps 741 mmHg 84%
    02:00 +2°C° 0.4 mm 5 mps 740 mmHg 84%
    03:00 +2°C° 0.4 mm 5 mps 740 mmHg 85%
    04:00 +3°C° 0.1 mm 5 mps 740 mmHg 85%
    05:00 +3°C° 0.1 mm 5 mps 740 mmHg 86%
    06:00 +3°C° 0.1 mm 5 mps 740 mmHg 86%
    07:00 +4°C° 0.1 mm 4 mps 740 mmHg 86%
    08:00 +4°C° 0.1 mm 4 mps 740 mmHg 86%
    09:00 +4°C° 0.1 mm 4 mps 740 mmHg 86%
    10:00 +5°C° 0.3 mm 4 mps 741 mmHg 83%
    11:00 +5°C° 0.3 mm 5 mps 741 mmHg 80%
    12:00 +5°C° 0.3 mm 5 mps 741 mmHg 78%
    13:00 +5°C° 0.1 mm 5 mps 741 mmHg 77%
    14:00 +5°C° 0.1 mm 5 mps 742 mmHg 77%
    15:00 +5°C° 0.1 mm 5 mps 742 mmHg 76%
    16:00 +3°C° 0 mm 5 mps 743 mmHg 77%
    17:00 +3°C° 0 mm 4 mps 743 mmHg 78%
    18:00 +2°C° 0 mm 3 mps 744 mmHg 80%
    19:00 +2°C° 0 mm 3 mps 744 mmHg 81%
    20:00 +2°C° 0 mm 3 mps 745 mmHg 83%
    21:00 +1°C° 0 mm 3 mps 745 mmHg 84%
    22:00 +1°C° 0 mm 3 mps 746 mmHg 87%
    23:00 +1°C° 0 mm 3 mps 746 mmHg 89%
    Show more